NETSAT-2

Last updated on Tue Jul 01 2025 00:03:44 GMT+0000 (Coordinated Universal Time)

1 46507U 20068X 25181.52373190 .00008952 00000+0 30653-3 0 9998 2 46507 97.8462 160.0157 0006735 141.6599 218.5121 15.30460371261690
UTC large
Height (km)
Speed (km/s)
/
Latitude / Longitude
Inclination (degrees)
Orbital Period (minutes)
Azimuth
Elevation
Range (km)
Doppler Factor

Next 0 passes for location: London (51.5072 / 0.1276)

Sorry there are no passes over London.